Regional Weather Roundup
Issued by NWS

Home | Current Version | Previous Version | Text Only | Print | Product List | Glossary Off
Versions: 1 2 3 4 5 6 7 8 9 10 11 12 13 14 15 16 17 18 19 20 21 22 23 24 25 26 27 28 29 30 31 32 33 34 35 36 37 38 39 40 41 42 43 44 45 46 47 48 49 50

000
ASUS43 KMKX 040300
RWRWI

WISCONSIN REGIONAL WEATHER ROUNDUP
NATIONAL WEATHER SERVICE MILWAUKEE/SULLIVAN WI
1000 PM CDT THU SEP 03 2015

NOTE: "FAIR" INDICATES FEW OR NO CLOUDS BELOW 12,000 FEET WITH NO
SIGNIFICANT WEATHER AND/OR OBSTRUCTIONS TO VISIBILITY.

WIZ001-002-006>008-014>016-023>028-040400-
NORTHWEST WISCONSIN

CITY           SKY/WX    TMP DP  RH WIND       PRES   REMARKS
SUPERIOR ARPT  CLEAR     57  56  94 E7        29.98R
ASHLAND        CLEAR     54  54 100 CALM      29.99R FOG
HAYWARD        CLEAR     66  64  93 CALM      29.98R
SIREN          CLEAR     70  67  92 SE3       29.94S
CUMBERLAND     CLEAR     68  64  88 SE5       29.96R
RICE LAKE      CLEAR     67  64  91 E3        29.97S
CHETEK         CLEAR     69  67  92 SE3       29.96R
LADYSMITH      CLEAR     68  65  90 E3        30.00R
EAU CLAIRE     NOT AVBL
MENOMONIE      CLEAR     71  67  88 E6        29.94R
NEW RICHMOND   CLEAR     72  66  82 E8        29.93R
OSCEOLA        CLEAR     73  68  86 E8        29.95R
$$

WIZ003>005-009-010-017-018-040400-
NORTH CENTRAL WISCONSIN

CITY           SKY/WX    TMP DP  RH WIND       PRES   REMARKS
MANITOWISH WTR FOG       62  62 100 CALM      30.02R VSB 1/4
ARBOR VITAE    CLEAR     63  62  94 CALM      30.02R
WOODRUFF       CLEAR     63  62  94 CALM      30.02R
RHINELANDER    CLEAR     62  58  86 CALM      30.03R
EAGLE RIVER    MOCLDY    62  62 100 CALM      30.03R
LAND O LAKES   FOG       61  61  99 CALM      30.04R VSB 3/4
PHILLIPS       CLEAR     66  64  94 CALM      30.00R
TOMAHAWK       CLEAR     61  60  96 CALM      30.02R FOG
MEDFORD        CLEAR     66  65  97 SE3       30.00R
MERRILL        FOG       62  62 100 CALM      30.01R VSB 3/4
$$

WIZ029-030-035-036-043>047-040400-
CENTRAL WISCONSIN

CITY           SKY/WX    TMP DP  RH WIND       PRES   REMARKS
WAUSAU         CLEAR     66  64  93 CALM      29.98R
MOSINEE        CLEAR     64  64 100 E3        30.01R
MARSHFIELD     CLEAR     67  63  87 E3        29.99R
STEVENS POINT  CLEAR     62  62  98 CALM      30.00R
WAUPACA        CLEAR     66  65  99 CALM      29.98R FOG
WAUTOMA        NOT AVBL
WISC RAPIDS    CLEAR     65  63  93 CALM      29.99R
CAMP DOUGLAS   PTCLDY    70  70 100 SE5       29.97R FOG
$$

WIZ011>013-019>022-031-037>040-048>050-040400-
NORTHEAST WISCONSIN

CITY           SKY/WX    TMP DP  RH WIND       PRES   REMARKS
ANTIGO         CLEAR     63  62  97 E5        30.02R
SHAWANO        NOT AVBL
OCONTO         CLEAR     63  63 100 CALM      29.97R
STURGEON BAY   CLEAR     64  61  88 N3        29.99S
GREEN BAY      CLEAR     65  63  93 N5        29.97R
MANITOWOC      NOT AVBL
APPLETON       MOCLDY    66  64  94 CALM      29.97R
CLINTONVILLE   FOG       64  64 100 CALM      29.98R VSB 1/2
OSHKOSH        CLEAR     67  64  90 N5        29.96S
$$

WIZ032>034-041-042-053>061-040400-
SOUTHWEST WISCONSIN

CITY           SKY/WX    TMP DP  RH WIND       PRES   REMARKS
LA CROSSE      PTCLDY    79  69  71 SE6G17    29.92R HX  81
SPARTA         CLOUDY    74  65  73 E9        29.96R
VIROQUA          N/A     74  73  99 E6        29.95R
BOSCOBEL       MOCLDY    80  74  81 VRB5      29.93R HX  85
PRAIRIE DU CHI CLEAR     77  73  87 CALM      29.90R
PLATTEVILLE    MOCLDY    80  75  86 E5        29.94R HX  84
$$

WIZ056-057-062-063-064-067-068-040400-
SOUTH CENTRAL WISCONSIN

CITY           SKY/WX    TMP DP  RH WIND       PRES   REMARKS
REEDSBURG      CLEAR     72  68  87 E6        29.96R
BARABOO/DELLS  CLEAR     70  65  84 E6        29.97R
LONE ROCK      NOT AVBL
MINERAL POINT  PTCLDY    79  73  83 E6        29.95R HX  82
MADISON        PTCLDY    71  65  81 CALM      29.96R
MIDDLETON      CLEAR     72  67  83 E6        29.97R
WATERTOWN      CLOUDY    69  69 100 CALM      29.96R
MONROE         MOCLDY    73  70  88 NE9       29.95R
JANESVILLE     PTCLDY    73  70  88 NE5       29.94R
$$

WIZ051-052-058>065-066-070>072-040400-
SOUTHEAST WISCONSIN

CITY           SKY/WX    TMP DP  RH WIND       PRES   REMARKS
MILWAUKEE      MOCLDY    65  63  93 N7        29.94F
WAUKESHA       CLOUDY    68  63  83 E3        29.97R
MILWAUKEE/TIMM MOCLDY    66  63  88 NE3       29.96S
RACINE         CLOUDY    65  63  93 N5        29.96F
BURLINGTON     CLOUDY    69  64  84 E5        29.96R
KENOSHA        CLOUDY    69  65  86 N3        29.96S
FOND DU LAC    CLEAR     65  64  97 NW3       29.97R
SHEBOYGAN      CLEAR     65  64  97 N8        29.96S
WEST BEND      CLEAR     64  63  94 CALM      29.96S
JUNEAU         CLEAR     67  65  90 N3        29.97R
$$

LSZ147-162-040400-
LAKE SUPERIOR

STATION/POSITION TIME  TEMP    WIND        PRES    WAVE
                       AIR SEA DIR/SP/G            HT/PER
                 (UTC) (F)     (DEG/KT/KT) (MB)    (FT/S)
W MID LAKE BUOY  0150   59 57   60/ 10/ 10 1015.1R   0
DEVILS ISLAND    0200   60      80/  6/  7 1015.3R
PORT WING        0240   55      50/  7/  9 1015.2R
SAXON HARBOR     0200   60        CALM     1014.6S
$$

LMZ867-665-643>646-040400-
LAKE MICHIGAN

STATION/POSITION TIME  TEMP    WIND        PRES    WAVE
                       AIR SEA DIR/SP/G            HT/PER
                 (UTC) (F)     (DEG/KT/KT) (MB)    (FT/S)
CHAMBERS ISLAND  0200   66      10/  4/  6 1014.6R
N MID LAKE BUOY  0150   69 66   70/ 14/ 16 1013.9R   1/ 3
NORTHPORT PIER   0200   69      50/  7/ 10 1014.6R
SISTER BAY       0211   69        CALM       N/A
ALGOMA LAKESHORE 0244          330/  8/  9   N/A
KEWAUNEE LAKESHO 0200   66     350/  4/  6 1013.4R
SHEBOYGAN LAKESH 0200   63     360/ 10/ 10 1014.6R
PORT WASHINGTON  0200   67     340/  2/  4 1014.9R
ATWATER BUOY     0200   59     350/  6/  8 1015.5R
MILWAUKEE LAKESH 0210   65      30/  5/  6   N/A
S MID LAKE BUOY  0050   70 71  360/ 12/ 14 1012.4R   1/ 3
KENOSHA   LAKESH 0200   67     350/  7/  7 1013.9R
$$

TC  - TEMPERATURE IN CELSIUS
VSB - VISIBILITY IN STATUTE MILES
WCI - WIND CHILL INDEX
HX  - HEAT INDEX




USA.gov is the U.S. government's official web portal to all federal, state and local government web resources and services.